Powrót do katalogu

FENGYUN 1C DEB

AktywnySSO
NORAD 29913·DEBRIS·🇨🇳 China

Wystrzelony May 10, 1999 z Taiyuan Satellite Launch Center

Loading…

Następne Przeloty (najbliższe 24 godziny)

TLE

ŚwieżeSource: Space-Track

Epoka: Sep 14, 2026, 10:28 UTC

1 29913U 99025HK  26257.43620515  .00000253  00000-0  17238-3 0  9991
2 29913  98.8002 253.9936 0061872 214.3146 304.8113 14.07643336  8336

Śledź FENGYUN 1C DEB w czasie rzeczywistym z AllMySat

Download on the App Store